GW2445 Weather Reports


Display with metric or nautical units.
time (UTC)temp
F
wind
direction
speed
MPH
gust
MPH
rain 1hr
in
rain 24hr
in
rain mn
in
humidity
%
barometer
mb
20240720032703 59 338 0.0 0.0 0.00 0.00 0.00 92 1018.5
20240720032159 60 338 0.0 0.0 0.00 0.00 0.00 92 1018.4
20240720031915 60 338 0.0 0.0 0.00 0.00 0.00 92 1018.4
20240720031121 60 338 0.0 0.0 0.00 0.00 0.00 91 1018.4
20240720030606 60 338 0.0 0.0 0.00 0.00 0.00 91 1018.5
20240720030100 60 338 0.0 0.0 0.00 0.00 0.00 91 1018.7
20240720025552 60 338 0.0 0.0 0.00 0.00 0.00 91 1018.8
20240720025047 60 338 0.0 0.0 0.00 0.00 0.00 91 1018.7
20240720024548 60 338 0.0 0.0 0.00 0.00 0.00 90 1018.7
20240720024315 61 338 0.0 0.0 0.00 0.00 0.00 90 1018.7
20240720023541 61 338 0.0 0.0 0.00 0.00 0.00 90 1018.7
20240720023032 61 338 0.0 0.0 0.00 0.00 0.00 90 1018.7
20240720022526 61 338 0.0 0.0 0.00 0.00 0.00 90 1018.7
20240720022003 61 338 0.0 0.0 0.00 0.00 0.00 89 1018.8
20240720021448 62 338 0.0 0.0 0.00 0.00 0.00 89 1018.8
20240720020940 62 338 0.0 0.0 0.00 0.00 0.00 89 1018.9
20240720020429 62 338 0.0 0.0 0.00 0.00 0.00 88 1018.9
20240720015929 62 338 0.0 0.0 0.00 0.00 0.00 88 1019.0
20240720015430 62 338 0.0 0.0 0.00 0.00 0.00 87 1018.9
20240720014854 62 338 0.0 0.0 0.00 0.00 0.00 87 1018.9
20240720014352 62 338 0.0 0.0 0.00 0.00 0.00 86 1018.9
20240720013847 63 338 0.0 0.0 0.00 0.00 0.00 86 1018.8
20240720013342 63 338 0.0 0.0 0.00 0.00 0.00 85 1018.5
20240720012837 63 338 0.0 0.0 0.00 0.00 0.00 85 1018.5
20240720012321 64 338 0.0 0.0 0.00 0.00 0.00 84 1018.5
20240720012010 64 338 0.0 0.0 0.00 0.00 0.00 83 1018.4
20240720011246 64 338 0.0 0.0 0.00 0.00 0.00 83 1018.4
20240720010748 65 338 0.0 0.0 0.00 0.00 0.00 82 1018.4
20240720010505 65 338 0.0 0.0 0.00 0.00 0.00 81 1018.5
20240720005745 65 338 0.0 0.0 0.00 0.00 0.00 80 1018.7
20240720005243 66 338 0.0 0.0 0.00 0.00 0.00 79 1018.7
20240720004735 66 338 0.0 0.0 0.00 0.00 0.00 78 1018.5
20240720004230 67 338 0.0 0.0 0.00 0.00 0.00 77 1018.5
20240720003936 67 338 0.0 0.0 0.00 0.00 0.00 77 1018.8
20240720003210 67 338 0.0 0.0 0.00 0.00 0.00 76 1018.8
20240720002707 68 338 0.0 0.0 0.00 0.00 0.00 75 1018.7
20240720002202 68 338 0.0 0.0 0.00 0.00 0.00 74 1018.8
20240720001147 69 338 0.0 0.0 0.00 0.00 0.00 72 1018.8
20240720000900 69 338 0.0 0.0 0.00 0.00 0.00 72 1018.9
20240720000124 69 338 0.0 0.0 0.00 0.00 0.00 73 1019.0
20240719235616 69 338 0.0 2.0 0.00 0.00 0.00 73 1019.1
20240719235101 69 338 0.0 2.0 0.00 0.00 0.00 73 1019.1
20240719234548 69 338 0.0 1.0 0.00 0.00 0.00 72 1019.1
20240719234038 69 338 0.0 1.0 0.00 0.00 0.00 72 1019.1
20240719233752 70 338 0.0 1.0 0.00 0.00 0.00 72 1019.2
20240719233247 70 338 0.0 1.0 0.00 0.00 0.00 72 1019.1
20240719232528 70 338 0.0 1.0 0.00 0.00 0.00 73 1019.0
20240719231507 70 337 0.0 1.0 0.00 0.00 0.00 74 1019.1
20240719230716 70 339 0.0 3.0 0.00 0.00 0.00 72 1019.1
20240719225955 70 327 0.0 0.0 0.00 0.00 0.00 72 1019.2
20240719225446 70 327 0.0 0.0 0.00 0.00 0.00 71 1019.2
20240719224948 71 5 0.0 5.0 0.00 0.00 0.00 71 1019.2
20240719224446 71 5 0.0 5.0 0.00 0.00 0.00 71 1019.3
20240719223941 71 5 0.0 2.0 0.00 0.00 0.00 70 1019.3
20240719223430 71 5 0.0 3.0 0.00 0.00 0.00 68 1019.3
20240719222925 72 9 0.0 3.0 0.00 0.00 0.00 68 1019.4
20240719222425 73 342 0.0 4.0 0.00 0.00 0.00 67 1019.3
20240719221919 73 342 0.0 4.0 0.00 0.00 0.00 67 1019.4
20240719221409 73 39 0.0 4.0 0.00 0.00 0.00 68 1019.4
20240719220902 72 53 1.0 5.0 0.00 0.00 0.00 70 1019.4
20240719220350 73 24 1.0 5.0 0.00 0.00 0.00 68 1019.4
20240719215847 73 9 1.0 5.0 0.00 0.00 0.00 67 1019.5
20240719215331 73 338 1.0 6.0 0.00 0.00 0.00 67 1019.5
20240719214827 73 292 1.0 6.0 0.00 0.00 0.00 67 1019.5
20240719214316 73 331 0.0 5.0 0.00 0.00 0.00 67 1019.5
20240719213803 73 26 0.0 1.0 0.00 0.00 0.00 67 1019.5
20240719213302 73 36 0.0 3.0 0.00 0.00 0.00 68 1019.6
20240719213021 73 350 0.0 3.0 0.00 0.00 0.00 66 1019.8
20240719212505 74 5 0.0 5.0 0.00 0.00 0.00 68 1019.8
20240719211748 73 252 1.0 6.0 0.00 0.00 0.00 69 1019.9
20240719211232 73 38 0.0 6.0 0.00 0.00 0.00 67 1020.0
20240719210727 73 331 1.0 6.0 0.00 0.00 0.00 69 1020.0
20240719210228 73 5 1.0 9.0 0.00 0.00 0.00 69 1020.0
20240719205709 73 315 1.0 7.0 0.00 0.00 0.00 67 1019.9
20240719205426 73 40 1.0 7.0 0.00 0.00 0.00 67 1020.0
20240719204652 73 17 1.0 6.0 0.00 0.00 0.00 67 1020.1
20240719204147 73 11 0.0 5.0 0.00 0.00 0.00 65 1020.1
20240719203648 73 46 1.0 6.0 0.00 0.00 0.00 68 1020.2
20240719203134 73 315 1.0 6.0 0.00 0.00 0.00 66 1020.2
20240719202624 74 274 1.0 6.0 0.00 0.00 0.00 68 1020.2
20240719202117 73 26 2.0 7.0 0.00 0.00 0.00 69 1020.2
20240719201605 73 41 2.0 7.0 0.00 0.00 0.00 67 1020.2
20240719201103 73 355 1.0 5.0 0.00 0.00 0.00 67 1020.3
20240719200547 74 327 1.0 5.0 0.00 0.00 0.00 65 1020.3
20240719200040 73 306 1.0 6.0 0.00 0.00 0.00 68 1020.2
20240719195540 73 32 1.0 6.0 0.00 0.00 0.00 67 1020.3
20240719195039 73 26 1.0 6.0 0.00 0.00 0.00 67 1020.2
20240719194535 74 9 1.0 5.0 0.00 0.00 0.00 67 1020.2
20240719194031 74 10 2.0 5.0 0.00 0.00 0.00 66 1020.2
20240719193753 74 5 2.0 7.0 0.00 0.00 0.00 67 1020.2
20240719193027 74 5 1.0 7.0 0.00 0.00 0.00 66 1020.3
20240719192531 74 281 1.0 6.0 0.00 0.00 0.00 67 1020.2
20240719192023 74 310 1.0 6.0 0.00 0.00 0.00 68 1020.3
20240719191520 74 24 1.0 7.0 0.00 0.00 0.00 67 1020.3
20240719191016 74 275 1.0 7.0 0.00 0.00 0.00 66 1020.2
20240719190517 74 244 1.0 5.0 0.00 0.00 0.00 67 1020.2
20240719190013 74 237 1.0 5.0 0.00 0.00 0.00 67 1020.2
20240719185508 74 54 1.0 11.0 0.00 0.00 0.00 67 1020.2
20240719185005 74 317 2.0 11.0 0.00 0.00 0.00 69 1020.1
20240719184455 73 316 2.0 10.0 0.00 0.00 0.00 68 1020.2
20240719184207 74 41 2.0 7.0 0.00 0.00 0.00 67 1020.2
20240719183633 73 5 1.0 7.0 0.00 0.00 0.00 69 1020.3
20240719182914 73 0 1.0 5.0 0.00 0.00 0.00 69 1020.3
20240719182412 73 292 2.0 7.0 0.00 0.00 0.00 67 1020.2
20240719182137 73 15 1.0 7.0 0.00 0.00 0.00 69 1020.4
20240719181409 74 342 1.0 7.0 0.00 0.00 0.00 67 1020.3
20240719180854 73 340 1.0 7.0 0.00 0.00 0.00 68 1020.5
20240719175848 73 5 1.0 7.0 0.00 0.00 0.00 69 1020.4
20240719175341 73 355 2.0 7.0 0.00 0.00 0.00 68 1020.4
20240719174828 73 328 2.0 6.0 0.00 0.00 0.00 68 1020.6
20240719174328 73 302 2.0 7.0 0.00 0.00 0.00 69 1020.6
20240719173827 74 271 1.0 7.0 0.00 0.00 0.00 67 1020.6
20240719173327 73 298 1.0 6.0 0.00 0.00 0.00 68 1020.6
20240719172803 73 313 2.0 7.0 0.00 0.00 0.00 68 1020.7
20240719172255 73 15 2.0 7.0 0.00 0.00 0.00 67 1020.5
20240719171753 73 291 1.0 5.0 0.00 0.00 0.00 67 1020.5
20240719171514 73 5 1.0 6.0 0.00 0.00 0.00 70 1020.6
20240719170748 73 338 1.0 6.0 0.00 0.00 0.00 67 1020.6
20240719170247 73 351 2.0 6.0 0.00 0.00 0.00 70 1020.6
20240719165746 73 38 2.0 6.0 0.00 0.00 0.00 65 1020.6
20240719165501 73 344 2.0 6.0 0.00 0.00 0.00 66 1020.7
20240719164739 73 340 2.0 6.0 0.00 0.00 0.00 73 1020.7
20240719164237 72 5 2.0 6.0 0.00 0.00 0.00 68 1020.7
20240719163735 72 10 1.0 6.0 0.00 0.00 0.00 71 1020.8
20240719163234 72 336 1.0 6.0 0.00 0.00 0.00 67 1020.7
20240719162733 73 336 1.0 6.0 0.00 0.00 0.00 66 1020.7
20240719162221 73 355 1.0 4.0 0.00 0.00 0.00 68 1020.7
20240719161720 72 355 1.0 5.0 0.00 0.00 0.00 68 1020.8
20240719161218 71 355 1.0 5.0 0.00 0.00 0.00 69 1020.9
20240719160716 71 333 1.0 4.0 0.00 0.00 0.00 67 1020.9
20240719160201 71 313 1.0 4.0 0.00 0.00 0.00 69 1020.8
20240719155700 71 313 1.0 4.0 0.00 0.00 0.00 67 1020.8
20240719155150 72 304 1.0 5.0 0.00 0.00 0.00 65 1020.9
20240719154642 73 293 0.0 5.0 0.00 0.00 0.00 67 1021.0
20240719154138 72 36 0.0 3.0 0.00 0.00 0.00 67 1020.9
20240719153633 72 300 0.0 1.0 0.00 0.00 0.00 67 1020.9
20240719153130 72 299 0.0 1.0 0.00 0.00 0.00 67 1020.8
20240719152622 72 299 0.0 1.0 0.00 0.00 0.00 63 1020.8
20240719152119 72 299 1.0 5.0 0.00 0.00 0.00 67 1020.7
20240719151614 71 305 2.0 5.0 0.00 0.00 0.00 66 1020.8
20240719151111 70 0 1.0 4.0 0.00 0.00 0.00 68 1020.8
20240719150611 70 5 0.0 2.0 0.00 0.00 0.00 67 1020.8
20240719150102 71 5 0.0 1.0 0.00 0.00 0.00 69 1020.8
20240719145600 71 5 1.0 3.0 0.00 0.00 0.00 68 1020.9
20240719145306 71 10 1.0 3.0 0.00 0.00 0.00 66 1020.9
20240719144538 71 11 0.0 3.0 0.00 0.00 0.00 68 1020.9
20240719143524 71 21 0.0 4.0 0.00 0.00 0.00 64 1020.9
20240719143020 72 17 0.0 3.0 0.00 0.00 0.00 69 1020.9
20240719142512 71 17 0.0 3.0 0.00 0.00 0.00 68 1020.9
20240719142002 71 355 0.0 3.0 0.00 0.00 0.00 68 1020.9
20240719141459 71 348 0.0 3.0 0.00 0.00 0.00 66 1020.9
20240719141000 70 348 0.0 1.0 0.00 0.00 0.00 69 1020.9
20240719140446 70 59 0.0 1.0 0.00 0.00 0.00 67 1021.0
20240719140201 70 58 0.0 1.0 0.00 0.00 0.00 72 1020.7
20240719135439 69 59 0.0 4.0 0.00 0.00 0.00 69 1020.7
20240719134936 69 59 1.0 4.0 0.00 0.00 0.00 70 1020.8
20240719134432 69 59 1.0 5.0 0.00 0.00 0.00 70 1020.9
20240719133928 69 59 1.0 5.0 0.00 0.00 0.00 69 1020.9
20240719133424 69 73 1.0 3.0 0.00 0.00 0.00 70 1021.0
20240719133136 69 73 0.0 3.0 0.00 0.00 0.00 70 1021.0
20240719132406 69 74 0.0 0.0 0.00 0.00 0.00 70 1021.0
20240719131343 69 51 0.0 2.0 0.00 0.00 0.00 73 1021.0
20240719130839 68 51 0.0 2.0 0.00 0.00 0.00 74 1021.0
20240719130036 67 51 1.0 5.0 0.00 0.00 0.00 74 1020.8
20240719125311 67 340 0.0 1.0 0.00 0.00 0.00 76 1020.8
20240719124812 65 261 0.0 1.0 0.00 0.00 0.00 79 1020.6
20240719124305 64 261 0.0 1.0 0.00 0.00 0.00 82 1020.6
20240719123753 64 261 0.0 0.0 0.00 0.00 0.00 84 1020.6
20240719123246 63 260 0.0 0.0 0.00 0.00 0.00 86 1020.5
20240719122746 62 260 0.0 0.0 0.00 0.00 0.00 89 1020.4
20240719122157 62 260 0.0 0.0 0.00 0.00 0.00 90 1020.3
20240719121654 61 260 0.0 0.0 0.00 0.00 0.00 91 1020.3
20240719121358 61 260 0.0 0.0 0.00 0.00 0.00 92 1020.3
20240719120629 60 260 0.0 1.0 0.00 0.00 0.00 93 1020.2
20240719120129 60 260 0.0 1.0 0.00 0.00 0.00 94 1020.1
20240719115608 60 260 0.0 0.0 0.00 0.00 0.00 94 1020.1
20240719115058 59 260 0.0 0.0 0.00 0.00 0.00 94 1020.0
20240719114548 59 260 0.0 0.0 0.00 0.00 0.00 94 1019.9
20240719114048 58 260 0.0 0.0 0.00 0.00 0.00 95 1019.8
20240719113757 58 260 0.0 0.0 0.00 0.00 0.00 95 1019.8
20240719113025 58 260 0.0 0.0 0.00 0.00 0.00 95 1019.7
20240719112740 58 260 0.0 0.0 0.00 0.00 0.00 95 1019.6
20240719112013 57 260 0.0 0.0 0.00 0.00 0.00 95 1019.7
20240719111454 57 260 0.0 0.0 0.00 0.00 0.00 95 1019.6
20240719110951 57 260 0.0 0.0 0.00 0.00 0.00 95 1019.6
20240719110446 57 260 0.0 1.0 0.00 0.00 0.00 95 1019.5
20240719105944 56 260 0.0 1.0 0.00 0.00 0.00 95 1019.3
20240719105440 56 260 0.0 0.0 0.00 0.00 0.00 95 1019.3
20240719104936 56 260 0.0 0.0 0.00 0.00 0.00 94 1019.2
20240719104355 56 260 0.0 0.0 0.00 0.00 0.00 94 1019.1
20240719103851 56 260 0.0 0.0 0.00 0.00 0.00 95 1019.0
20240719103614 56 260 0.0 0.0 0.00 0.00 0.00 94 1019.0
20240719102844 56 260 0.0 0.0 0.00 0.00 0.00 94 1019.1
20240719102339 56 260 0.0 0.0 0.00 0.00 0.00 94 1018.9
20240719101832 56 260 0.0 0.0 0.00 0.00 0.00 94 1018.9
20240719101255 56 260 0.0 0.0 0.00 0.00 0.00 94 1019.0
20240719100753 56 260 0.0 0.0 0.00 0.00 0.00 94 1018.8
20240719100246 56 260 0.0 0.0 0.00 0.00 0.00 94 1018.8
20240719095728 56 260 0.0 0.0 0.00 0.00 0.00 94 1018.5
20240719095224 56 255 0.0 0.0 0.00 0.00 0.00 94 1018.5
20240719094724 56 257 0.0 0.0 0.00 0.00 0.00 94 1018.5
20240719094214 56 257 0.0 0.0 0.00 0.00 0.00 94 1018.5
20240719093924 56 257 0.0 0.0 0.00 0.00 0.00 94 1018.5
20240719092655 56 257 0.0 0.0 0.00 0.00 0.00 94 1018.5
20240719092147 56 257 0.0 0.0 0.00 0.00 0.00 94 1018.4
20240719091638 56 257 0.0 0.0 0.00 0.00 0.00 93 1018.4
20240719091405 57 257 0.0 0.0 0.00 0.00 0.00 94 1018.4
20240719090824 57 257 0.0 0.0 0.00 0.00 0.00 93 1018.3
20240719090306 57 257 0.0 0.0 0.00 0.00 0.00 93 1018.4
20240719085543 57 257 0.0 0.0 0.00 0.00 0.00 93 1018.4
20240719085032 57 257 0.0 0.0 0.00 0.00 0.00 93 1018.4
20240719084530 57 257 0.0 0.0 0.00 0.00 0.00 93 1018.4
20240719084017 57 257 0.0 0.0 0.00 0.00 0.00 93 1018.3
20240719083733 57 257 0.0 0.0 0.00 0.00 0.00 93 1018.3
20240719083205 58 257 0.0 0.0 0.00 0.00 0.00 93 1018.2
20240719082445 58 257 0.0 0.0 0.00 0.00 0.00 93 1018.2
20240719081940 58 257 0.0 0.0 0.00 0.00 0.00 93 1018.1
20240719081658 58 257 0.0 0.0 0.00 0.00 0.00 93 1018.3
20240719080924 58 257 0.0 0.0 0.00 0.00 0.00 92 1018.3
20240719080422 58 257 0.0 0.0 0.00 0.00 0.00 93 1018.3
20240719075921 58 257 0.0 0.0 0.00 0.00 0.00 92 1018.2
20240719075415 59 257 0.0 0.0 0.00 0.00 0.00 92 1018.2
20240719074858 59 257 0.0 0.0 0.00 0.00 0.00 92 1018.3
20240719074349 59 257 0.0 0.0 0.00 0.00 0.00 92 1018.2
20240719073839 59 257 0.0 0.0 0.00 0.00 0.00 92 1018.2
20240719073553 59 257 0.0 0.0 0.00 0.00 0.00 91 1018.2
20240719072809 59 257 0.0 0.0 0.00 0.00 0.00 91 1018.2
20240719072257 60 257 0.0 0.0 0.00 0.00 0.00 91 1018.1
20240719071148 60 257 0.0 0.0 0.00 0.00 0.00 90 1018.2
20240719070647 60 257 0.0 0.0 0.00 0.00 0.00 90 1018.2
20240719070146 60 257 0.0 0.0 0.00 0.00 0.00 90 1018.2
20240719065644 60 257 0.0 0.0 0.00 0.00 0.00 90 1018.2
20240719065133 61 257 0.0 0.0 0.00 0.00 0.00 89 1018.2
20240719064615 61 257 0.0 0.0 0.00 0.00 0.00 89 1018.3
20240719064045 61 257 0.0 0.0 0.00 0.00 0.00 88 1018.2
20240719063801 62 257 0.0 0.0 0.00 0.00 0.00 88 1018.4
20240719063038 62 257 0.0 0.0 0.00 0.00 0.00 87 1018.5
20240719062754 62 257 0.0 0.0 0.00 0.00 0.00 87 1018.5
20240719062026 62 257 0.0 0.0 0.00 0.00 0.00 87 1018.7
20240719061458 62 257 0.0 0.0 0.00 0.00 0.00 87 1018.7
20240719060947 63 257 0.0 0.0 0.00 0.00 0.00 86 1018.5
20240719060437 63 257 0.0 0.0 0.00 0.00 0.00 86 1018.7
20240719055920 63 257 0.0 0.0 0.00 0.00 0.00 86 1018.7
20240719055343 63 257 0.0 0.0 0.00 0.00 0.00 86 1018.7
20240719054831 63 257 0.0 0.0 0.00 0.00 0.00 86 1018.5
20240719054303 63 257 0.0 0.0 0.00 0.00 0.00 86 1018.5
20240719053746 63 257 0.0 0.0 0.00 0.00 0.00 86 1018.5
20240719053245 63 257 0.0 0.0 0.00 0.00 0.00 86 1018.5
20240719052707 63 257 0.0 0.0 0.00 0.00 0.00 86 1018.5
20240719052147 63 257 0.0 0.0 0.00 0.00 0.00 86 1018.4
20240719051642 63 257 0.0 0.0 0.00 0.00 0.00 86 1018.5
20240719051129 63 257 0.0 0.0 0.00 0.00 0.00 86 1018.4
20240719050626 63 257 0.0 0.0 0.00 0.00 0.00 86 1018.3
20240719050126 63 257 0.0 0.0 0.00 0.00 0.00 85 1018.4
20240719045610 63 257 0.0 1.0 0.00 0.00 0.00 85 1018.4
20240719045111 64 257 0.0 1.0 0.00 0.00 0.00 85 1018.4
20240719044606 64 257 0.0 0.0 0.00 0.00 0.00 84 1018.4
20240719044038 64 257 0.0 0.0 0.00 0.00 0.00 84 1018.4
20240719043524 64 257 0.0 0.0 0.00 0.00 0.00 83 1018.4
20240719043012 64 257 0.0 0.0 0.00 0.00 0.00 84 1018.3
20240719042447 64 257 0.0 0.0 0.00 0.00 0.00 83 1018.2
20240719041857 64 257 0.0 0.0 0.00 0.00 0.00 83 1018.2
20240719041356 64 257 0.0 0.0 0.00 0.00 0.00 83 1018.1
20240719040139 64 325 0.0 0.0 0.00 0.00 0.00 83 1017.9
20240719035622 64 325 0.0 0.0 0.00 0.00 0.00 83 1017.9
20240719035335 64 325 0.0 0.0 0.00 0.00 0.00 83 1017.8
20240719034608 64 325 0.0 0.0 0.00 0.00 0.00 83 1017.8
20240719034046 64 325 0.0 0.0 0.00 0.00 0.00 83 1017.8
20240719033543 65 325 0.0 0.0 0.00 0.00 0.00 82 1017.7
20240719033043 65 325 0.0 0.0 0.00 0.00 0.00 83 1017.8